Location: Almena Post Office
(39.8928°N, 99.7066°W)
Time: 06:08:57
(UTC+00:00)

Cosmos 1346 Rocket - Pass Details

Date: 27 February 2020
Orbit: 527 x 552 km, 81.2° (Epoch: 07 April)

Event Time Altitude Azimuth Distance (km) Brightness Sun altitude
Rises 12:05:42 0° 349° (N) 2,673 6.2 -14.2°
Reaches altitude 10° 12:07:51 10° 349° (N) 1,778 5.3 -13.8°
Maximum altitude 12:11:45 82° 262° (W) 537 2.6 -13.0°
Drops below altitude 10° 12:15:38 10° 175° (S) 1,766 5.5 -12.3°
Sets 12:17:46 0° 174° (S) 2,653 6.4 -11.9°
